Track COSMOS 2517 (GEO-IK) now! 10-day predictions COSMOS 2517 (GEO-IK) is classified as:
1 41579U 16034A 23151.20524700 .00000034 00000-0 68072-4 0 9996 2 41579 99.2115 163.9307 0001272 80.7849 279.3451 13.85900364353463